Погода в Омске

Погода в Омске : погода сейчас, прогноз погоды и архив. Всё, что Вы хотите узнать о погоде в Омске!

Хотите узнать прогноз погоды в Омске? Тогда Вам сюда: Погода в Омске

Поиск расширенной информации на нашем сайте:

Другие новости

Новости СМИ2

Главная страница сайта

Новости сайта

03.07.2017

Напоминаем, что на нашем специализированном сайте Метеоцентр.Азия вы можете получить высокодетализированные автоматические прогнозы погоды по пунктам России, СНГ и мира в авиационном формате (включающие направление и скорость ветра, видимость, явления погоды, количество и форму облачности, нижнюю и верхнюю границу облачности).

Рекомендуем: Оптовка: печное литье балезино.

Погода в Омске - сегодня

Время (UTC), дата Ветер
(°,м/с) 
Видим.   Явления Облачность Т
(°С)
Тd
(°С)
f(%) Тe
(°С)
Pmin
(гПа)
dP
(гПа)
Po
(мм)
O2
(г/м3)
Тmin Tmax R s Состояние
почвы
15 12.10.18 210 (ЮЗ) 10 км  {ливн. осадки}  6/6 600 м кучево-дожд. 
[Cb cap]
+3 +0.5 84 +2  1002.9  0.8  741  295    +8.8  0.0     
18 12.10.18 290 (З) 10 км  {ливн. осадки}  6/4 600 м кучево-дожд., средняя 
[Cb cap|Ac trans]
+1.6 +0 89 +1  1002.2  -0.8  740  297           
21 12.10.18 290 (З) 10 км    10/8 600 м кучево-дожд., средняя 
[Cb cap|Ac und]
+2 +0.3 88 +1  1002.2  0.1  740  296           
03 13.10.18 330 (СЗ) 20000 м  {ливн. осадки}  8/3 600 м средняя 
[Sc|Ac trans]
+0.8 -1.2 86 +1  1003.7  1.1  741  298  +0.2    0.0    влажная 
06 13.10.18 320 (СЗ) 20000 м  {ливн. осадки}  6/6 600 м 
[Sc]
+2.5 -3.7 64 +1  1004  0.4  742  297           
09 13.10.18 300 (СЗ) 20000 м    10/4 600 м верхняя 
[Sc|Ci sp]
+4.2 -7.2 43 +4  1004.3  0.3  742  295           
12 13.10.18 300 (СЗ) 20000 м    10/3 600 м верхняя 
[Sc|Ci sp]
+2.4 -8.7 44 +3  1006.1  1.7  743  298           
15 13.10.18 тихо ()   10 км    3/0 верхняя 
[Ci fib]
-2.7 -6.7 74 -3  1007.8  1.4  744  304    +4.6       
18 13.10.18 210 (ЮЗ) 10 км    3/0 верхняя 
[Ci fib]
-2.7 -6.9 73 -2  1008.8  745  304           
21 13.10.18 210 (ЮЗ) 10 км    ясно 
-3.8 -6.3 83 -3  1009.9  746  305           
00 14.10.18 200 (Ю) 10 км    3/0 верхняя 
[Ci fib]
-4.7 -5.7 93 -4  1011  1.1  747  307           
03 14.10.18 200 (Ю) 20000 м    10/0 верхняя 
[Ci fib]
-2.2 -3.2 93 -2  1011.8  0.9  747  304  -5.5        сухая 
06 14.10.18 200 (Ю) 20000 м    8/5 600 м верхняя 
[Cu med, cong|Ci fib]
+3 -2.4 68 +2  1012.6  1.1  748  298           
09 14.10.18 190 (Ю) 20000 м    10/10 600 м кучево-дожд. 
[Cb cap]
+2 -2.4 73 +1  1014  1.3  749  300           
12 14.10.18 180 (Ю) 9000 м  слаб. ливневой снег  10/6 600 м кучево-дожд., средняя 
[Cb cap|Ac und]
+1.3 -1.8 80 +2  1015.3  1.2  750  301           
15 14.10.18 180 (Ю) 10 км  {ливн. осадки}  8/0 средняя 
[Ac trans]
-0.2 -0.9 95 -1  1016.3  0.9  751  303    +3.2  0.1     
18 14.10.18 190 (Ю) 10 км  {ливн. осадки}  10/3 600 м кучево-дожд., средняя 
[Cb cap|Ac und]
-0.4 -0.8 97 -1  1016.8  0.4  751  303           
21 14.10.18 170 (Ю) 10 км  {ливн. осадки}  10/0 средняя 
[Ac und]
-1.3 -2.4 92 -2  1017.4  0.6  752  305           
00 15.10.18 180 (Ю) 10 км  {ливн. осадки}  9/0 средняя 
[Ac trans]
-2.4 -3.2 94 -3  1018  0.5  752  306           
03 15.10.18 170 (Ю) 8000 м  дымка  10/10 300 м 
[St]
-2.8 -3.4 96 -4  1019.3  1.2  753  307  -3.9    0.0  <0.5  сухой снег
50-90% 
06 15.10.18 130 (ЮВ) 6000 м  дымка  4/3 300 м верхняя 
[St|Ci fib]
+0.9 -0.9 88 -1  1019.4  0.4  753  303           
09 15.10.18 140 (ЮВ) 20000 м    8/6 600 м верхняя 
[Cu med, cong|Ci fib]
+3.4 -3 63 +4  1018.9  -0.4  753  300           
12 15.10.18 070 (В) 20000 м    6/6 600 м кучево-дожд. 
[Cb cap]
+2.3 -3.3 66 +2  1019.5  0.5  753  301           
15 15.10.18 060 (СВ) 10 км    ясно 
-2.7 -4.9 85 -4  1020.4  0.6  754  307    +4.7       
18 15.10.18 050 (СВ) 10 км    ясно 
-2.6 -4.3 88 -4  1020.2  -0.2  754  307           
Время (UTC), дата Ветер
(°,м/с) 
Видим.   Явления Облачность Т
(°С)
Тd
(°С)
f(%) Тe
(°С)
Pmin
(гПа)
dP
(гПа)
Po
(мм)
O2
(г/м3)
Тmin Tmax R s Состояние
почвы

Для получения пояснительной информации подведите курсор к названию столбца.

ПОГОДА в Омске - архив

Всё, что Вы хотите узнать о погоде в Омске - удобно и подробно!

Выберите нужную дату (начиная с 1 января 2015* года) и нажмите кнопку "Найти".
Будут отображены архивные сводки погоды по пункту Омск, начиная с указанной даты.


Отображать данные в формате CSV (для использования в таблицах Excel)


Внимание! Наш архив погоды предназначен исключительно для личного некоммерческого использования в познавательных целях. Если Вам необходимы официальные справки о состоянии погоды (для производственных, юридических, коммерческих и т.п. целей), обращайтесь в органы Росгидромета.

*Примечание: данная дата относится к архиву по метеостанциям СССР (Россия, СНГ, Балтия).
Архив по метеостанциям Зарубежной Европы и Азии (кроме Китая) хранится 10 дней, по другим регионам земного шара (Китай, Африка, Америка, Австралия, Океания) - 1 день.

Омск - район местоположения метеостанции


Название, широта, долгота, высота метеостанции:
Омск (город) 55°ш. 73.4°д. 122 м над ур. моря [Российская Федерация]

Дополнительная информация

В oтличие oт бoльшинства пoгoдных сайтoв мы публикуем пoдрoбную метеoинфoрмацию в детальнoм прoфессиoнальнoм фoрмате.

Характеристики температуры и влажнoсти вoздуха измеряются на высoте 2 м в тени вдали oт зданий и деревьев.
Скoрoсть ветра измеряется на высoте 10 м (на урoвне рoста челoвека скoрoсть ветра ниже в 1.5-2 раза). Если метеoстанция нахoдится в гoрoде или в лесу, тo скoрoсть ветра занижена на 2-4 м/с пo сравнению с oткрытым местoм. Скoрoсть ветра над акватoриями крупных рек и oзёр, а также на вершинах хoлмoв на 2-5 м/с выше, чем в oбычных услoвиях.
Атмoсфернoе давление в разных тoчках местнoсти мoжет значительнo oтличаться oт давления на метеoстанции, в зависимoсти oт услoвий рельефа (при пoдъёме на 10 м давление пoнижается примернo на 1 мм рт.ст.).